Location: G�ppingen
(48.7000°N, 9.6670°E)
Time: 07:53:41
(UTC+01:00)

Envisat - Visible Passes

Search period start: 20 March 2019 00:00
Search period end: 30 March 2019 00:00
Orbit: 764 x 766 km, 98.2° (Epoch: 19 March)

Date Brightness Start Highest point End Pass type
(mag) Time Alt. Az. Time Alt. Az. Time Alt. Az.
20 Mar 3.9 19:14:39 10° S 19:19:38 55° W 19:24:38 10° NNW visible
21 Mar 5.9 20:19:15 10° SW 20:22:26 17° W 20:25:39 10° NW visible
22 Mar 4.9 19:40:45 10° SSW 19:45:18 33° W 19:49:54 10° NNW visible
23 Mar 3.5 19:03:20 10° S 19:08:23 68° WSW 19:13:28 10° NNW visible
24 Mar 5.7 20:07:21 10° SW 20:11:05 20° W 20:14:51 10° NW visible
25 Mar 4.5 19:29:15 10° SSW 19:34:01 41° W 19:38:49 10° NNW visible
26 Mar 6.1 20:35:00 10° WSW 20:36:58 12° W 20:38:57 10° WNW visible
27 Mar 5.4 19:55:36 10° SSW 19:59:45 25° W 20:03:56 10° NW visible
28 Mar 4.1 19:17:49 10° S 19:22:44 50° W 19:27:42 10° NNW visible
29 Mar 5.9 20:22:41 10° WSW 20:25:35 15° W 20:28:32 10° NW visible
